WetterOnline ( http://www.wetteronline.de )

Wetter aktuell Pforzheim

Aktuelles Wetter: Mühlacker (245m)

6-stündlich | Neueste Meldungen
Ortszeit Temperatur Wetter
Di, 17.07. 20:00 27.0° C wolkenlos
Di, 17.07. 14:00 29.6° C fast wolkenlos
Di, 17.07. 8:00 17.1° C fast wolkenlos
Di, 17.07. 2:00 14.3° C wolkenlos
Mo, 16.07. 20:00 26.5° C fast wolkenlos
Mo, 16.07. 14:00 25.6° C leicht bewölkt
Mo, 16.07. 8:00 16.3° C bedeckt
Mo, 16.07. 2:00 15.6° C bewölkt
Ortszeit Temperatur Wetter
Mi, 18.07. 1:00 16.8° C wolkenlos
Mi, 18.07. 0:40 17.0° C fast wolkenlos
Mi, 18.07. 0:30 17.2° C wolkig
Mi, 18.07. 0:20 17.2° C wolkig
Mi, 18.07. 0:10 17.7° C bewölkt
Mi, 18.07. 0:00 18.4° C bewölkt
Di, 17.07. 23:50 18.4° C bewölkt
Di, 17.07. 23:30 18.6° C bedeckt
Di, 17.07. 23:00 18.1° C bewölkt
Di, 17.07. 22:30 18.1° C wolkig
Di, 17.07. 22:00 19.3° C wolkenlos
Di, 17.07. 21:30 20.1° C wolkenlos
Ortszeit Relative Feuchte Sichtweite
Di, 17.07. 20:00 38% 70 km
Di, 17.07. 14:00 34% 35 km
Di, 17.07. 8:00 80% 19 km
Di, 17.07. 2:00 91% 23 km
Mo, 16.07. 20:00 41% 60 km
Mo, 16.07. 14:00 46% 45 km
Mo, 16.07. 8:00 97% 5.0 km
Mo, 16.07. 2:00 97% 9 km
Ortszeit Relative Feuchte Sichtweite
Mi, 18.07. 1:00 81% 35 km
Mi, 18.07. 0:40 81% -
Mi, 18.07. 0:30 80% 35 km
Mi, 18.07. 0:20 80% -
Mi, 18.07. 0:10 79% -
Mi, 18.07. 0:00 78% 40 km
Di, 17.07. 23:50 78% -
Di, 17.07. 23:30 78% 40 km
Di, 17.07. 23:00 77% 35 km
Di, 17.07. 22:30 76% 40 km
Di, 17.07. 22:00 70% 35 km
Di, 17.07. 21:30 68% 50 km
Ortszeit Niederschlagsmenge Niederschlagsart
Di, 17.07. 20:00 0.2 l/m2 in 12 Std. Regen, Niederschlag
Di, 17.07. 14:00 0.0 l/m2 in 6 Std. -
Di, 17.07. 8:00 0.0 l/m2 in 12 Std. -
Di, 17.07. 2:00 0.0 l/m2 in 6 Std. -
Mo, 16.07. 20:00 0.0 l/m2 in 12 Std. -
Mo, 16.07. 14:00 0.0 l/m2 in 6 Std. -
Mo, 16.07. 8:00 3 l/m2 in 12 Std. Regen
Mo, 16.07. 2:00 0.1 l/m2 in 6 Std. Regen
Ortszeit Niederschlagsmenge Niederschlagsart
Mi, 18.07. 1:00 0.0 l/m2 in 1 Std. -
Mi, 18.07. 0:40 keine Meldung -
Mi, 18.07. 0:30 0.0 l/m2 in 1 Std. -
Mi, 18.07. 0:20 keine Meldung -
Mi, 18.07. 0:10 keine Meldung -
Mi, 18.07. 0:00 0.1 l/m2 in 1 Std. Regen
Di, 17.07. 23:50 keine Meldung -
Di, 17.07. 23:30 0.1 l/m2 in 1 Std. Schneeregen
Di, 17.07. 23:00 0.0 l/m2 in 1 Std. -
Di, 17.07. 22:30 0.0 l/m2 in 1 Std. -
Di, 17.07. 22:00 0.0 l/m2 in 1 Std. -
Di, 17.07. 21:30 0.0 l/m2 in 1 Std. -
Ortszeit Stärke Spitze Richtung
km/h Bft. km/h Grad Sektor
Di, 17.07. 20:00 9 2 44 310° NW
Di, 17.07. 14:00 19 3 31 310° NW
Di, 17.07. 8:00 0 0 7 - -
Di, 17.07. 2:00 0 0 18 - -
Mo, 16.07. 20:00 7 2 25 50° NO
Mo, 16.07. 14:00 4 1 25 220° SW
Mo, 16.07. 8:00 4 1 18 110° O
Mo, 16.07. 2:00 4 1 40 100° O
Ortszeit Stärke Spitze Richtung
km/h Bft. km/h Grad Sektor
Mi, 18.07. 1:00 0 0 7 - -
Mi, 18.07. 0:40 2 1 - 340° N
Mi, 18.07. 0:30 2 1 7 330° NW
Mi, 18.07. 0:20 2 1 - 330° NW
Mi, 18.07. 0:10 2 1 - 270° W
Mi, 18.07. 0:00 4 1 7 30° NO
Di, 17.07. 23:50 4 1 - 30° NO
Di, 17.07. 23:30 4 1 7 20° N
Di, 17.07. 23:00 4 1 7 230° SW
Di, 17.07. 22:30 4 1 7 30° NO
Di, 17.07. 22:00 4 1 7 340° N
Di, 17.07. 21:30 4 1 7 50° NO
Ortszeit Untergrenze Bedeckung Gattung
total tief tief mittel hoch
Di, 17.07. 20:00 - 0/8 0/8 - - -
Di, 17.07. 14:00 1800 m 1/8 1/8 - - -
Di, 17.07. 8:00 8400 m 1/8 0/8 - - -
Di, 17.07. 2:00 - 0/8 0/8 - - -
Mo, 16.07. 20:00 9000 m 2/8 0/8 - - -
Mo, 16.07. 14:00 1350 m 4/8 4/8 - - -
Mo, 16.07. 8:00 2100 m 8/8 8/8 - - -
Mo, 16.07. 2:00 1800 m 8/8 7/8 - - -
Ortszeit Bedeckungsgrad in Achtel und Wolkenuntergrenze
Mi, 18.07. 1:00 keine Wolken
Mi, 18.07. 0:40 1(4200m)
Mi, 18.07. 0:30 1(3300m) 6(4200m)
Mi, 18.07. 0:20 1(3300m) 6(4200m)
Mi, 18.07. 0:10 1(3000m) 7(3900m)
Mi, 18.07. 0:00 3(3000m) 7(3900m)
Di, 17.07. 23:50 3(3000m) 7(3900m)
Di, 17.07. 23:30 8(3000m) 8(3600m)
Di, 17.07. 23:00 6(2700m) 7(3300m)
Di, 17.07. 22:30 4(3600m) 5(4800m)
Di, 17.07. 22:00 2(4800m)
Di, 17.07. 21:30 keine Wolken
Ortszeit Luftdruck NN (hPa) Tendenz (hPa in 3 Std.)
Di, 17.07. 20:00 1014 - 0,2
Di, 17.07. 14:00 1013 - 0,4
Di, 17.07. 8:00 1015 + 0,8
Di, 17.07. 2:00 1014 + 0,9
Mo, 16.07. 20:00 1010 - 0,4
Mo, 16.07. 14:00 1013 - 1,2
Mo, 16.07. 8:00 1015 - 0,4
Mo, 16.07. 2:00 1015 0,0
Ortszeit Luftdruck NN (hPa) Tendenz (hPa in 3 Std.)
Mi, 18.07. 1:00 1017 + 0,8
Mi, 18.07. 0:40 1017 keine Meldung
Mi, 18.07. 0:30 1017 + 1,0
Mi, 18.07. 0:20 1017 keine Meldung
Mi, 18.07. 0:10 1017 keine Meldung
Mi, 18.07. 0:00 1017 + 1,2
Di, 17.07. 23:50 1017 keine Meldung
Di, 17.07. 23:30 1017 + 1,4
Di, 17.07. 23:00 1017 + 1,7
Di, 17.07. 22:30 1016 + 1,5
Di, 17.07. 22:00 1016 + 1,3
Di, 17.07. 21:30 1015 + 1,0
Ortszeit Schneehöhe (cm)
Di, 17.07. 20:00 -
Di, 17.07. 14:00 -
Di, 17.07. 8:00 -
Di, 17.07. 2:00 -
Mo, 16.07. 20:00 -
Mo, 16.07. 14:00 -
Mo, 16.07. 8:00 -
Mo, 16.07. 2:00 -
Ortszeit Schneehöhe (cm)
Mi, 18.07. 1:00 -
Mi, 18.07. 0:40 -
Mi, 18.07. 0:30 -
Mi, 18.07. 0:20 -
Mi, 18.07. 0:10 -
Mi, 18.07. 0:00 -
Di, 17.07. 23:50 -
Di, 17.07. 23:30 -
Di, 17.07. 23:00 -
Di, 17.07. 22:30 -
Di, 17.07. 22:00 -
Di, 17.07. 21:30 -
Link zu dieser Seite / Seite empfehlen

Das Wetter in ...